Regional Weather Roundup
Issued by NWS

Home | Current Version | Previous Version | Text Only | Print | Product List | Glossary Off
Versions: 1 2 3 4 5 6 7 8 9 10 11 12 13 14 15 16 17 18 19 20 21 22 23 24 25 26 27 28 29 30 31 32 33 34 35 36 37 38 39 40 41 42 43 44 45 46 47 48 49 50

000
ASUS43 KLMK 052010
RWRKY
KENTUCKY REGIONAL WEATHER ROUNDUP
NATIONAL WEATHER SERVICE LOUISVILLE KY
400 PM EDT TUE MAY 05 2015

NOTE "FAIR" INDICATES FEW OR NO CLOUDS BELOW 12,000 FEET
WITH NO SIGNIFICANT WEATHER AND/OR OBSTRUCTIONS TO VISIBILITY.

KYZ001>023-026-027-061>063-070>075-052100-
WESTERN AND SOUTH CENTRAL KENTUCKY

CITY           SKY/WX    TMP DP  RH WIND       PRES   REMARKS
PADUCAH        MOSUNNY   85  55  35 S8        30.16F
HENDERSON      MOSUNNY   84  52  32 SE5       30.18F
OWENSBORO      MOSUNNY   84  57  39 SW7       30.20F
HOPKINSVILLE   NOT AVBL
BOWLING GREEN  MOSUNNY   84  51  31 VRB5      30.22F
GLASGOW        SUNNY     83  50  32 SW3       30.23F
$$

KYZ024-025-028>034-038-045-046-053-052100-
NORTH CENTRAL KENTUCKY

CITY           SKY/WX    TMP DP  RH WIND       PRES   REMARKS
LOUISVILLE/SDF MOSUNNY   82  52  35 SW9       30.21F
LOUISVILLE/LOU PTSUNNY   83  50  31 CALM      30.21F
FORT KNOX      MOSUNNY   83  53  35 S8        30.21S
$$

KYZ035>037-039>044-047>052-055>060-089>105-052100-
NORTHEAST KENTUCKY

CITY           SKY/WX    TMP DP  RH WIND       PRES   REMARKS
LEXINGTON      MOSUNNY   82  54  37 W6        30.25F
COVINGTON      MOSUNNY   80  52  37 SW8G16    30.22F
FRANKFORT      CLOUDY    80  53  39 CALM      30.22F
$$

KYZ054-064>069-076>088-106>120-052100-
SOUTHEAST KENTUCKY

CITY           SKY/WX    TMP DP  RH WIND       PRES   REMARKS
JACKSON        MOSUNNY   79  49  34 NW6       30.26F
LONDON         SUNNY     83  47  28 VRB5      30.25F
SOMERSET       SUNNY     79  46  31 CALM      30.26F
MIDDLESBORO    MOSUNNY   82  52  35 NW3       30.25F
MONTICELLO     PTCLDY    83  52  34 CALM      30.27F
$$



USA.gov is the U.S. government's official web portal to all federal, state and local government web resources and services.